FW2254 Weather Reports


Display with metric or nautical units.
time (UTC)temp
F
wind
direction
speed
MPH
gust
MPH
rain 1hr
in
rain 24hr
in
rain mn
in
humidity
%
barometer
mb
20260505083034 69 25 0.0 2.0 0.00 0.00 0.00 89 1003.7
20260505081523 69 25 0.0 3.0 0.00 0.00 0.00 89 1004.0
20260505080022 69 25 0.0 3.0 0.00 0.00 0.00 89 1004.0
20260505074518 69 25 0.0 4.0 0.00 0.00 0.00 88 1004.2
20260505073016 69 25 0.0 3.0 0.00 0.00 0.00 88 1004.4
20260505071522 69 25 0.0 3.0 0.00 0.00 0.00 87 1004.7
20260505070012 69 25 1.0 4.0 0.00 0.00 0.00 87 1004.7
20260505064511 69 25 0.0 2.0 0.00 0.00 0.00 86 1004.9
20260505063014 70 25 0.0 2.0 0.00 0.00 0.00 86 1004.9
20260505061508 70 25 0.0 1.0 0.00 0.00 0.00 85 1005.2
20260505060006 70 25 0.0 0.0 0.00 0.00 0.00 85 1005.2
20260505054506 70 25 0.0 0.0 0.00 0.00 0.00 85 1005.2
20260505053006 70 25 0.0 0.0 0.00 0.00 0.00 84 1005.2
20260505051504 70 25 0.0 0.0 0.00 0.00 0.00 84 1005.4
20260505041610 71 25 0.0 0.0 0.00 0.00 0.00 80 1005.5
20260505034555 71 25 0.0 0.0 0.00 0.00 0.00 79 1005.7
20260505033056 71 25 0.0 0.0 0.00 0.00 0.00 80 1005.8
20260505031555 71 25 0.0 0.0 0.00 0.00 0.00 79 1005.7
20260505024559 71 25 0.0 0.0 0.00 0.00 0.00 79 1005.5
20260505023050 71 25 0.0 0.0 0.00 0.00 0.00 78 1005.6
20260505021554 71 25 0.0 0.0 0.00 0.00 0.00 77 1005.5
20260505020056 71 25 0.0 0.0 0.00 0.00 0.00 77 1005.5
20260505014545 71 25 0.0 0.0 0.00 0.00 0.00 76 1005.4
20260505013043 72 25 0.0 0.0 0.00 0.00 0.00 75 1005.1
20260505011540 72 25 0.0 0.0 0.00 0.00 0.00 74 1005.3
20260505010059 73 25 0.0 0.0 0.00 0.00 0.00 73 1005.2
20260505004531 74 25 0.0 0.0 0.00 0.00 0.00 71 1005.3
20260505003030 75 25 0.0 1.0 0.00 0.00 0.00 70 1005.1
20260505001525 76 25 0.0 3.0 0.00 0.00 0.00 67 1005.3
20260505000023 76 25 0.0 2.0 0.00 0.00 0.00 67 1005.4
20260504234518 77 25 0.0 2.0 0.00 0.00 0.00 67 1005.8
20260504233015 77 25 0.0 1.0 0.00 0.00 0.00 65 1006.1
20260504231513 77 25 0.0 2.0 0.00 0.00 0.00 64 1006.1
20260504230012 78 25 0.0 3.0 0.00 0.00 0.00 63 1006.0
20260504224510 78 25 1.0 4.0 0.00 0.00 0.00 60 1006.2
20260504223007 78 25 0.0 2.0 0.00 0.00 0.00 61 1006.4
20260504221506 78 25 0.0 3.0 0.00 0.00 0.00 60 1006.7
20260504220004 79 25 1.0 3.0 0.00 0.00 0.00 59 1006.6
20260504214501 79 25 0.0 3.0 0.00 0.00 0.00 58 1006.8
20260504213104 79 25 0.0 5.0 0.00 0.00 0.00 57 1006.9
20260504211601 80 25 0.0 4.0 0.00 0.00 0.00 56 1007.1
20260504204554 81 25 1.0 3.0 0.00 0.00 0.00 56 1008.0
20260504203048 81 25 0.0 3.0 0.00 0.00 0.00 55 1008.5
20260504201548 81 25 2.0 4.0 0.00 0.00 0.00 56 1008.7
20260504200053 82 24 1.0 4.0 0.00 0.00 0.00 53 1009.0
20260504194540 82 25 0.0 3.0 0.00 0.00 0.00 53 1009.4
20260504193042 82 25 0.0 3.0 0.00 0.00 0.00 56 1009.6
20260504191535 80 25 0.0 3.0 0.00 0.00 0.00 57 1009.6
20260504190032 80 25 1.0 4.0 0.00 0.00 0.00 54 1010.0
20260504184536 80 25 1.0 5.0 0.00 0.00 0.00 53 1010.1
20260504183034 80 25 0.0 3.0 0.00 0.00 0.00 55 1010.1
20260504181526 79 25 1.0 3.0 0.00 0.00 0.00 55 1010.5
20260504180026 79 25 1.0 4.0 0.00 0.00 0.00 57 1010.6
20260504174522 79 25 1.0 4.0 0.00 0.00 0.00 58 1010.9
20260504173017 78 25 0.0 3.0 0.00 0.00 0.00 55 1011.3
20260504171514 77 25 1.0 5.0 0.00 0.00 0.00 59 1011.5